Montoursville, PA

9:54 PM EDT on August 29, 2016 (GMT -0400)
Williamsport Rgnl

Weather History for KIPT - January, 2013

Change the Weather History Date:

Wednesday, January 23, 2013

  Actual Average Record
Temperature  
Mean Temperature 9 °F 27 °F  
Max Temperature 17 °F 34 °F 66 °F (1906)
Min Temperature 1 °F 19 °F -11 °F (1970)
Degree Days  
Heating Degree Days 56 38  
Month to date heating degree days 810 882  
Since 1 July heating degree days 2858 3175  
Cooling Degree Days 0 0  
Month to date cooling degree days 0 0  
Year to date cooling degree days 0 0  
Moisture  
Dew Point -1 °F    
Average Humidity 65    
Maximum Humidity 79    
Minimum Humidity 51    
Precipitation  
Precipitation T in 0.09 in 0.95 in (1982)
Month to date precipitation 0.84 2.00  
Year to date precipitation 0.84 2.00  
Snow  
Snow T in 0.30 in 9.20 in (1966)
Month to date snowfall 5.5 7.6  
Since 1 July snowfall 21.2 16.3  
Snow Depth 1.00 in    
Sea Level Pressure  
Sea Level Pressure 30.23 in    
Wind  
Wind Speed 6 mph (West)    
Max Wind Speed 5 mph    
Max Gust Speed 6 mph    
Visibility 10 miles    
Events      
T = Trace of Precipitation, MM = Missing Value Source: NWS Daily Summary

Daily Weather History Graph

Daily Weather History Graph

Search for Another Location

Airport or City:

Trip Planner

Search our weather history database for the weather conditions in past years. The results will help you decide how hot, cold, wet, or windy it might be!

Date:

Astronomy

Jan. 23, 2013 Rise Set
Actual Time 7:26 AM EST 5:13 PM EST
Civil Twilight 6:56 AM EST 5:43 PM EST
Nautical Twilight 6:22 AM EST 6:16 PM EST
Astronomical Twilight 5:50 AM EST 6:49 PM EST
Moon 2:21 PM EST (1/23) 4:36 AM EST (1/23)
Length of Visible Light 10h 46m
Length of Day
9h 47m
Waxing Gibbous, 89% of the Moon is Illuminated
Jan 23
Waxing Gibbous
Jan 26
Full
Feb 3
Last Quarter
Feb 10
New
Feb 17
First Quarter

Hourly Weather History & Observations

Time (EST) Temp. Windchill Dew Point Humidity Pressure Visibility Wind Dir Wind Speed Gust Speed Precip Events Conditions
12:54 AM 8.1 °F -5.3 °F -4.0 °F 58% 30.23 in 10.0 mi West 9.2 mph - N/A   Clear
1:54 AM 7.0 °F -3.3 °F -2.9 °F 64% 30.24 in 10.0 mi West 5.8 mph - N/A   Clear
2:54 AM 6.1 °F -2.8 °F -2.9 °F 67% 30.25 in 10.0 mi West 4.6 mph - N/A   Clear
3:54 AM 6.1 °F -0.9 °F -2.0 °F 69% 30.25 in 10.0 mi WNW 3.5 mph - N/A   Clear
4:42 AM 6.8 °F -4.8 °F -0.4 °F 72% 30.21 in 10.0 mi West 6.9 mph - N/A   Mostly Cloudy
4:54 AM 6.1 °F -2.8 °F -0.9 °F 73% 30.25 in 10.0 mi West 4.6 mph - N/A   Mostly Cloudy
5:54 AM 6.1 °F -2.8 °F -0.9 °F 73% 30.26 in 10.0 mi West 4.6 mph - N/A   Partly Cloudy
6:54 AM 6.1 °F -4.3 °F -2.0 °F 69% 30.27 in 10.0 mi West 5.8 mph - N/A   Partly Cloudy
7:54 AM 1.9 °F - -4.0 °F 76% 30.27 in 10.0 mi Calm Calm - N/A   Clear
8:54 AM 6.1 °F - -0.9 °F 73% 30.27 in 10.0 mi Calm Calm - N/A   Clear
9:54 AM 10.0 °F -5.2 °F -0.9 °F 61% 30.29 in 10.0 mi WSW 12.7 mph - 0.00 in   Clear
10:54 AM 10.9 °F -2.6 °F -0.9 °F 59% 30.28 in 10.0 mi WSW 10.4 mph - N/A   Overcast
11:54 AM 15.1 °F 0.5 °F 1.9 °F 56% 30.24 in 10.0 mi WSW 13.8 mph - N/A   Mostly Cloudy
12:54 PM 15.1 °F 1.8 °F -0.9 °F 49% 30.21 in 10.0 mi WNW 11.5 mph - N/A   Overcast
1:54 PM 16.0 °F 2.3 °F -0.0 °F 49% 30.20 in 10.0 mi West 12.7 mph 17.3 mph N/A   Overcast
2:54 PM 16.0 °F 4.4 °F -0.0 °F 49% 30.20 in 10.0 mi WSW 9.2 mph - N/A   Mostly Cloudy
3:54 PM 15.1 °F 7.7 °F 1.0 °F 54% 30.20 in 10.0 mi West 4.6 mph - N/A   Mostly Cloudy
4:54 PM 15.1 °F 2.5 °F -0.9 °F 49% 30.19 in 10.0 mi West 10.4 mph - N/A   Overcast
5:54 PM 12.0 °F 4.1 °F -0.0 °F 59% 30.20 in 10.0 mi SW 4.6 mph - N/A   Clear
6:54 PM 10.9 °F - -0.9 °F 59% 30.20 in 10.0 mi Calm Calm - N/A   Clear
7:54 PM 10.9 °F - 1.0 °F 64% 30.19 in 10.0 mi Calm Calm - N/A   Clear
8:54 PM 8.1 °F - -0.0 °F 70% 30.19 in 10.0 mi Calm Calm - N/A   Partly Cloudy
9:54 PM 7.0 °F - -0.0 °F 73% 30.19 in 10.0 mi Calm Calm - N/A   Overcast
10:54 PM 6.1 °F -0.9 °F -0.9 °F 73% 30.19 in 10.0 mi North 3.5 mph - N/A   Mostly Cloudy
11:54 PM 5.0 °F -4.1 °F -0.0 °F 80% 30.17 in 10.0 mi North 4.6 mph - N/A   Mostly Cloudy